Hourly Data Report for October 17, 2020

MUSKOKA
ONTARIO
Current Station Operator: NAVCAN

44°58'29.000" N
79°18'12.000" W
281.90 m
6115529
71532
YQA

Download Data

Hourly Data (October 2020)
Hourly Data Report for October 17, 2020
TIME Temp Definition
°C
Dew Point Definition
°C
Rel Hum Definition
%
Wind Dir Definition
10's deg

Wind Spd Definition
km/h
Visibility Definition
km
Stn Press Definition
kPa
Hmdx Definition


Wind Chill Definition


Weather Definition


00:00 0.8 -0.1 94 14 5 16.1 98.74     LegendNANA
01:00 -1.2 -1.5 98 13 5 16.1 98.72   -3 LegendNANA
02:00 -0.6 -1.0 97 12 4 16.1 98.69   -2 LegendNANA
03:00 -1.6 -1.9 98 11 4 9.7 98.67   -3 Fog
04:00 -1.9 -2.2 98   0 6.4 98.66     Fog
05:00 -0.1 -0.2 99 13 8 14.5 98.68   -3 LegendNANA
06:00 0.3 -0.1 97 11 9 16.1 98.70     LegendNANA
07:00 -0.6 -1.0 97 12 8 16.1 98.74   -3 LegendNANA
08:00 3.1 1.7 90 15 13 16.1 98.78     LegendNANA
09:00 6.5 2.1 74 19 15 16.1 98.83     LegendNANA
10:00 8.9 1.9 62 20 18 16.1 98.85     LegendNANA
11:00 9.1 1.6 59 24 18 16.1 98.92     LegendNANA
12:00 10.0 0.4 51 22 22 16.1 98.88     LegendNANA
13:00 9.7 0.5 53 25 13 16.1 98.87     LegendNANA
14:00 9.6 1.9 59 27 13 16.1 98.87     LegendNANA
15:00 9.3 1.4 58 25 9 16.1 98.88     LegendNANA
16:00 9.7 -0.6 48 23 21 16.1 98.87     LegendNANA
17:00 8.2 -0.3 55 24 5 16.1 98.85     LegendNANA
18:00 3.8 0.3 78 24 4 16.1 98.90     LegendNANA
19:00 1.6 0.4 92 11 4 16.1 98.90     LegendNANA
20:00 1.7 0.7 93 16 4 16.1 98.91     LegendNANA
21:00 3.6 0.1 78 17 8 16.1 98.91     LegendNANA
22:00 4.7 2.1 83 25 5 16.1 98.97     Rain
23:00 3.5 3.1 97   0 16.1 98.97     Rain

Notes on Data Quality.

Legend

  • E = Estimated
  • M = Missing
  • NA = Not Available*
  • [empty] = Indicates an unobserved value
Date modified: